Hourly Data Report for September 18, 2017

All times are specified in Local Standard Time (LST). Add 1 hour to adjust for Daylight Saving Time where and when it is observed.

GRISE FIORD CLIMATE
NUNAVUT

76°25'22.040" N
82°54'08.020" W
44.50 m
2402351
71971
NGC

Download Data

Hourly Data (September 2017)
Hourly Data Report for September 18, 2017
Temp Definition
°C
Dew Point Temp Definition
°C
Rel Hum Definition
%
Wind Dir Definition
10's deg

Wind Spd Definition
km/h
Visibility Definition
km
Stn Press Definition
kPa
Hmdx Definition


Wind Chill Definition


Weather Definition


TIME
00:00 -4.5 -9.6 67 24 8   100.49   -8 LegendNANA
01:00 -4.3 -9.7 66 26 11   100.52   -9 LegendNANA
02:00 -4.9 -10.3 65 24 7   100.53   -8 LegendNANA
03:00 -4.4 -10.0 65 27 13   100.56   -9 LegendNANA
04:00 -6.2 -11.4 67 16 4   100.61   -8 LegendNANA
05:00 -5.6 -10.4 69 12 8   100.64   -9 LegendNANA
06:00 -5.2 -10.7 65 14 6   100.67   -8 LegendNANA
07:00 -5.7 -10.9 66 4 5   100.72   -8 LegendNANA
08:00 -5.5 -11.2 64 6 11   100.75   -10 LegendNANA
09:00 -6.3 -11.7 65 4 4   100.81   -8 LegendNANA
10:00 -4.8 -12.1 57 13 3   100.85   -6 LegendNANA
11:00 -6.0 -12.4 60 2 3   100.89   -7 LegendNANA
12:00 -3.5 -12.7 49 24 1   100.94   -4 LegendNANA
13:00 -5.0 -11.6 60 3 8   100.97   -9 LegendNANA
14:00 -4.1 -11.3 57 33 9   101.01   -8 LegendNANA
15:00 -3.6 -10.2 60 28 13   101.05   -8 LegendNANA
16:00 -4.0 -10.3 62 2 5   101.11   -6 LegendNANA
17:00 -4.1 -10.2 62 24 7   101.15   -7 LegendNANA
18:00 -4.1 -9.1 68 31 13   101.21   -9 LegendNANA
19:00 -4.4 -8.9 71 33 20   101.26   -11 LegendNANA
20:00 -4.5 -8.6 73 31 16   101.29   -10 LegendNANA
21:00 -4.7 -8.8 73 36 16   101.35   -10 LegendNANA
22:00 -4.5 -8.5 73 7 12   101.36   -9 LegendNANA
23:00                    

Notes on Data Quality.

Legend

  • E = Estimated
  • M = Missing
  • NA = Not Available
  • ‡ = Partner data that is not subject to review by the National Climate Archives
Date modified: